Regional Weather Roundup
Issued by NWS

Home | Current Version | Previous Version | Text Only | Print | Product List | Glossary On
Versions: 1 2 3 4 5 6 7 8 9 10 11 12 13 14 15 16 17 18 19 20 21 22 23 24 25 26 27 28 29 30 31 32 33 34 35 36 37 38 39 40 41 42 43 44 45 46 47 48 49 50
000
ASUS45 KABQ 191010
RWRNM
WEATHER ROUNDUP FOR NEW MEXICO
NATIONAL WEATHER SERVICE ALBUQUERQUE NM
400 AM MDT SAT APR 19 2014

NOTE: "FAIR" MEANS FEW OR NO CLOUDS BELOW 12,000 FEET AGL WITH NO
       SIGNIFICANT WEATHER OR OBSTRUCTIONS TO VISION.

      THIS PRODUCT IS RELEASED AS TWO VERSIONS.  ONE VERSION NEAR
      THE TOP OF THE HOUR CONTAINING PRELIMINARY DATA FROM ALBUQUERQUE
      AND OTHER STATIONS.  A FINAL VERSION WITH ADDITIONAL DATA IS
      ISSUED ABOUT 10 MINUTES AFTER THE HOUR.

NMZ501-503-504-510>518-191100-
NORTHWEST PLATEAU/NORTHCENTRAL MOUNTAINS

CITY           SKY/WX    TMP DP  RH WIND       PRES   REMARKS
FARMINGTON     MOCLDY    49  44  83 NE5       30.10R
LOS ALAMOS     MOCLDY    46  38  72 CALM      30.17S
SANTA FE       PTCLDY    47  41  80 CALM      30.12S
TAOS           CLOUDY    43  37  81 NE6       30.19F
ANGEL FIRE     CLOUDY    43  35  71 W8        30.20S

$$
NMZ402-403-502-505>509-191100-
WESTCENTRAL MOUNTAINS/SOUTHWEST MOUNTAINS

CITY           SKY/WX    TMP DP  RH WIND       PRES   REMARKS
GALLUP         FAIR      36  31  82 CALM      30.13S
GRANTS         FAIR      38  32  78 CALM      30.15S
SILVER CITY    LGT RAIN  57  41  54 CALM      30.09R

$$
NMZ407-409-411-412-191100-
SOUTHERN DESERTS

CITY           SKY/WX    TMP DP  RH WIND       PRES   REMARKS
LORDSBURG      TSTM      52  50  93 W9        30.08R
DEMING         CLOUDY    58  33  39 NW8       30.00R
LAS CRUCES     FAIR      63  42  47 SE10      30.01S
HOLLOMAN AFB   PTCLDY    56  47  71 W5        30.00S
ALAMOGORDO     MOCLDY    57  45  62 N5        30.01S
T OR C         MOCLDY    59  40  49 N8        30.02S

$$
NMZ519>523-191100-
CENTRAL VALLEYS/CENTRAL HIGHLANDS

CITY           SKY/WX    TMP DP  RH WIND       PRES   REMARKS
ALBUQUERQUE    CLOUDY    55  40  56 E6        30.09R
DOUBLE EAGLE   MOCLDY    46  33  61 NW7       30.10F
MORIARTY ARPT  FAIR      42  40  93 W3        30.13F
CLINES CORNERS PTCLDY    42  37  82 CALM      30.13F
BELEN          FAIR      51  35  55 N5        30.08S
SOCORRO        FAIR      50  35  55 NW5       30.06S

$$
NMZ524>526-539-540-191100-
SOUTHCENTRAL MOUNTAINS

CITY           SKY/WX    TMP DP  RH WIND       PRES   REMARKS
RUIDOSO        CLOUDY    48  41  76 SE5       30.17F

$$
NMZ527>531-191100-
NORTHEAST HIGHLANDS/NORTHEAST PLAINS

CITY           SKY/WX    TMP DP  RH WIND       PRES   REMARKS
LAS VEGAS      MOCLDY    48  35  60 SW6       30.11F
RATON          PTCLDY    43  38  82 N6        30.07S
CLAYTON        PTCLDY    52  41  66 S12       30.01F

$$
NMZ532>537-191100-
EASTCENTRAL PLAINS

CITY           SKY/WX    TMP DP  RH WIND       PRES   REMARKS
TUCUMCARI      CLOUDY    61  43  51 SW18      30.04R
CANNON AFB     MOCLDY    50  42  74 S6        30.11S
CLOVIS AIRPORT CLOUDY    50  39  66 S8        30.14R

$$
NMZ028-029-538-191100-
SOUTHEAST PLAINS

CITY           SKY/WX    TMP DP  RH WIND       PRES   REMARKS
ROSWELL        LGT RAIN  61  50  67 S14       30.05F
ARTESIA        CLOUDY    55  54  94 CALM      30.03F
CARLSBAD       CLOUDY    57  54  89 SE12      30.02F
HOBBS          CLOUDY    54  45  71 SW3       30.10F


$$



USA.gov is the U.S. government's official web portal to all federal, state and local government web resources and services.